Simultaneous Nadir Overpasses (SNOs) Predictions

Prediction of SNOs between AQUA and METOP-C Satellite Orbit:

Table of predicted SNOs for the next 14.0 days since TLE Epoch: 4/5/2025
Index Date (AQUA) Time (AQUA) Lat,Lon (AQUA) SZA (AQUA ) Date (METOP-C) Time (METOP-C) Lat,Lon (METOP-C) SZA (METOP-C ) Distance(km) Time Diff (sec)
1 04/05/2025 15:00:53 76.42, -43.57 70.02 04/05/2025 15:00:06 76.40, -43.44 70.01 3.45 47
2 04/05/2025 15:50:11 -76.43, 124.07 109.99 04/05/2025 15:50:47 -76.44, 124.03 109.97 2.08 36
3 04/08/2025 03:49:36 76.39, 124.41 69.04 04/08/2025 03:48:59 76.40, 124.30 69.04 3.12 37
4 04/08/2025 04:38:55 -76.45, -68.12 110.92 04/08/2025 04:39:40 -76.44, -68.23 110.93 3.20 45
5 04/10/2025 16:38:19 76.41, -67.80 68.12 04/10/2025 16:37:52 76.42, -67.85 68.13 1.39 27
6 04/10/2025 17:27:38 -76.47, 99.68 111.83 04/10/2025 17:28:33 -76.46, 99.63 111.85 2.00 55
7 04/13/2025 05:27:00 76.45, 99.98 67.24 04/13/2025 05:26:45 76.43, 99.97 67.22 2.28 15
8 04/13/2025 06:16:19 -76.51, -92.55 112.72 04/13/2025 06:17:25 -76.52, -92.39 112.71 4.11 66
9 04/15/2025 17:26:15 -76.25, 100.88 113.86 04/15/2025 17:25:04 -76.18, 99.50 113.95 37.68 71
10 04/15/2025 18:15:38 76.45, -92.10 66.33 04/15/2025 18:15:37 76.47, -92.10 66.35 3.04 1
11 04/15/2025 19:05:03 -76.79, 74.37 113.36 04/15/2025 19:06:11 -76.83, 76.57 113.30 56.08 68
12 04/18/2025 06:14:55 -76.44, -91.85 114.56 04/18/2025 06:13:51 -76.43, -91.81 114.57 1.72 64
13 04/18/2025 07:04:15 76.50, 75.64 65.49 04/18/2025 07:04:29 76.51, 75.79 65.50 4.17 14



Historial Predications of SNOs between AQUA and METOP-C
